[[{"header":{"parameterUnit":"m.s-1","parameterCategory":1,"la1":30.2992,"la2":30.254,"lo1":-89.0895,"lo2":-89.0443,"dy":0.0025,"dx":0.0025,"nx":19,"ny":19,"refTime":"2026-03-08T09:00:00:Z","depth":0,"parameterNumber":2,"parameterNumberName":"U-component_of_WINDS"},"data":[0,0,0,-0.2091,-0.2091,-0.2103,-0.2103,-0.2116,-0.2116,0,0,0,0,0,0,0,0,0,0,0,-0.2087,-0.2087,-0.2091,-0.2091,-0.2103,-0.2103,-0.2116,-0.2116,0,0,0,0,0,0,0,0,0,0,0,-0.2087,-0.2087,-0.2087,-0.2091,-0.2103,-0.2103,-0.2116,-0.2108,0,0,0,0,0,0,0,0,0,0,-0.2097,-0.2092,-0.2087,-0.2087,-0.2091,-0.2103,-0.2103,-0.2107,-0.2108,-0.211,0,-0.2111,0,-0.2114,-0.2117,-0.2117,0,0,0,-0.2092,-0.2091,-0.2095,-0.2087,-0.2092,-0.2103,-0.2098,-0.2108,-0.2109,-0.2111,-0.2111,-0.2112,-0.2114,-0.2117,-0.2117,-0.2123,-0.2123,0,0,-0.2092,-0.2088,-0.2095,-0.2096,-0.2094,-0.2097,-0.2098,-0.2109,-0.2109,-0.2111,-0.2112,-0.2114,-0.2117,-0.2117,-0.2123,-0.2123,0,0,0,-0.2089,-0.2088,-0.2092,-0.2095,-0.2097,-0.2098,-0.2099,-0.2108,-0.211,-0.2112,-0.2114,-0.2117,-0.2117,-0.2123,-0.2123,-0.2119,0,0,0,-0.2089,-0.2087,-0.2091,-0.2089,-0.2097,-0.2103,-0.2098,-0.2109,-0.211,-0.2114,-0.2117,-0.2117,-0.2123,-0.2123,-0.2119,-0.2117,0,0,0,-0.2086,-0.2086,-0.2088,-0.2089,-0.2094,-0.2103,-0.2105,-0.2109,-0.2111,-0.2117,-0.2117,-0.2123,-0.2123,-0.2119,-0.2118,-0.2118,0,0,0,-0.2083,-0.2084,-0.2087,-0.2089,-0.2094,-0.21,-0.2105,-0.211,-0.2114,-0.2117,-0.2123,-0.2123,-0.2119,-0.2118,-0.2118,-0.2117,-0.2116,0,0,-0.2083,-0.2084,-0.2085,-0.2089,-0.2093,-0.2098,-0.2103,-0.211,-0.2114,-0.212,-0.212,-0.2119,-0.2118,-0.2118,-0.2114,-0.2113,0,0,0,-0.2084,-0.2085,-0.2087,-0.2091,-0.2096,-0.21,-0.2107,-0.2109,-0.2114,-0.2116,-0.2119,-0.2118,-0.2118,-0.2118,-0.2118,-0.2118,-0.2123,-0.2123,-0.2123,-0.208,-0.2084,-0.2086,-0.2091,-0.2095,-0.2101,-0.2104,-0.2109,-0.2113,-0.2113,-0.2115,-0.2112,-0.2112,-0.2111,-0.2112,-0.2115,-0.2115,-0.2115,-0.2115,-0.208,-0.2081,-0.2085,-0.2089,-0.2093,-0.2097,-0.2103,-0.2105,-0.2109,-0.2111,-0.2112,-0.2114,-0.2111,-0.2111,-0.2115,-0.2115,-0.2115,-0.2115,-0.2115,-0.2077,-0.2078,-0.2081,-0.2086,-0.2089,-0.2094,-0.2097,-0.2101,-0.2105,-0.2106,-0.2108,-0.2108,-0.2108,-0.2106,-0.2106,-0.2106,-0.2106,-0.2106,-0.2106,-0.2073,-0.2076,-0.2078,-0.2083,-0.2085,-0.2089,-0.2094,-0.2097,-0.2101,-0.2104,-0.2104,-0.2107,-0.211,-0.211,-0.2106,-0.2106,-0.2106,-0.2106,-0.2106,-0.2072,-0.2072,-0.2075,-0.2078,-0.2083,-0.2086,-0.209,-0.2095,-0.2098,-0.2099,-0.2102,-0.2103,-0.2105,-0.2106,-0.2106,-0.2101,-0.2101,-0.2101,-0.2101,-0.2069,-0.207,-0.2074,-0.2077,-0.2081,-0.2085,-0.2088,-0.2092,-0.2097,-0.2099,-0.21,-0.2101,-0.2101,-0.2103,-0.2103,-0.2104,-0.2099,-0.2099,-0.2099,-0.2069,-0.207,-0.2072,-0.2076,-0.208,-0.2084,-0.2087,-0.209,-0.2096,-0.2099,-0.21,-0.21,-0.2102,-0.2102,-0.2105,-0.2106,-0.2107,0,0]},{"header":{"parameterUnit":"m.s-1","parameterCategory":1,"la1":30.2992,"la2":30.254,"lo1":-89.0895,"lo2":-89.0443,"dy":0.0025,"dx":0.0025,"nx":19,"ny":19,"refTime":"2026-03-08T09:00:00:Z","depth":0,"parameterNumber":3,"parameterNumberName":"V-component_of_WINDS"},"data":[0,0,0,2.7026,2.7026,2.7024,2.7024,2.7009,2.7009,0,0,0,0,0,0,0,0,0,0,0,2.702,2.702,2.7026,2.7026,2.7024,2.7024,2.7009,2.7009,0,0,0,0,0,0,0,0,0,0,0,2.702,2.702,2.7019,2.7026,2.7024,2.7024,2.7009,2.7015,0,0,0,0,0,0,0,0,0,0,2.7019,2.7007,2.702,2.7019,2.7026,2.7024,2.7024,2.7015,2.7015,2.7005,0,2.6996,0,2.7003,2.7007,2.7007,0,0,0,2.703,2.7008,2.7013,2.7019,2.7026,2.7024,2.7026,2.7015,2.7014,2.7004,2.6996,2.6996,2.7002,2.7007,2.7007,2.6943,2.6942,0,0,2.703,2.7016,2.7014,2.7012,2.7013,2.7026,2.7026,2.7015,2.7004,2.6996,2.6996,2.7002,2.7007,2.7007,2.6943,2.6943,0,0,0,2.7028,2.7015,2.7022,2.7013,2.7013,2.7026,2.7026,2.7005,2.7008,2.6996,2.7002,2.7007,2.7007,2.6944,2.6943,2.6904,0,0,0,2.7028,2.7014,2.7022,2.7012,2.7013,2.7009,2.7016,2.7009,2.7008,2.7002,2.7007,2.7006,2.6944,2.6943,2.6906,2.6887,0,0,0,2.7022,2.7013,2.7011,2.7012,2.7011,2.701,2.7013,2.7009,2.7012,2.7007,2.7006,2.6945,2.6943,2.6908,2.6891,2.6867,0,0,0,2.7011,2.6975,2.701,2.6972,2.701,2.6986,2.7013,2.6995,2.6987,2.7007,2.6944,2.6943,2.6909,2.6893,2.6869,2.6843,2.6831,0,0,2.6957,2.6968,2.6946,2.6978,2.6944,2.6988,2.6948,2.6953,2.6965,2.6949,2.6948,2.6905,2.6891,2.6867,2.6771,2.6762,0,0,0,2.6924,2.6909,2.6903,2.6895,2.69,2.6903,2.6916,2.6919,2.6906,2.6955,2.6891,2.6883,2.6869,2.6858,2.685,2.6839,2.6937,2.6937,2.6937,2.6824,2.6844,2.6811,2.6831,2.6823,2.6839,2.6834,2.684,2.6861,2.6846,2.684,2.678,2.6766,2.676,2.6749,2.6829,2.6829,2.6829,2.6829,2.6746,2.6727,2.6758,2.6737,2.6758,2.674,2.6754,2.677,2.6756,2.6785,2.6774,2.6804,2.6749,2.6741,2.6826,2.6827,2.6827,2.6827,2.6827,2.6682,2.6676,2.6682,2.6675,2.6667,2.6688,2.6675,2.6694,2.6712,2.6701,2.6699,2.6699,2.6702,2.6699,2.6699,2.6699,2.6699,2.6698,2.6698,2.6613,2.6621,2.6607,2.6611,2.661,2.6611,2.6629,2.6628,2.6632,2.6647,2.6647,2.6669,2.6741,2.6758,2.6695,2.6696,2.6696,2.6696,2.6697,2.6525,2.6549,2.6528,2.6527,2.6534,2.6526,2.6552,2.6549,2.6552,2.6544,2.657,2.662,2.6632,2.6638,2.6652,2.6566,2.6566,2.6566,2.6566,2.6471,2.648,2.6464,2.6461,2.6461,2.6484,2.6459,2.6474,2.6491,2.6494,2.651,2.6531,2.6537,2.6545,2.6554,2.6567,2.6461,2.6461,2.6461,2.6418,2.6428,2.6403,2.6423,2.6431,2.6437,2.6416,2.6411,2.6436,2.6457,2.6497,2.6501,2.6536,2.6546,2.6565,2.6578,2.6604,0,0]}]]